TimeEDT,TemperatureF,Dew PointF,Humidity,Sea Level PressureIn,VisibilityMPH,Wind Direction,Wind SpeedMPH,Gust SpeedMPH,PrecipitationIn,Events,Conditions,WindDirDegrees,DateUTC
12:15 AM,64.4,59.0,83,29.95,10.0,NNW,12.7,-,N/A,,Overcast,340,2013-04-06 04:15:00
12:53 AM,64.0,59.0,84,29.96,10.0,NNW,12.7,-,N/A,,Overcast,340,2013-04-06 04:53:00
1:23 AM,62.6,59.0,88,29.96,10.0,NNW,13.8,-,N/A,,Overcast,340,2013-04-06 05:23:00
1:53 AM,64.0,57.9,80,29.97,10.0,NNW,13.8,19.6,N/A,,Overcast,340,2013-04-06 05:53:00
2:53 AM,62.1,57.0,84,29.97,10.0,NNW,10.4,-,N/A,,Mostly Cloudy,330,2013-04-06 06:53:00
3:53 AM,60.1,55.9,86,29.96,10.0,WNW,6.9,-,N/A,,Overcast,300,2013-04-06 07:53:00
4:22 AM,57.2,55.4,94,29.96,10.0,NW,9.2,-,N/A,,Scattered Clouds,310,2013-04-06 08:22:00
4:53 AM,57.0,54.0,89,29.97,10.0,NW,8.1,-,N/A,,Clear,310,2013-04-06 08:53:00
5:53 AM,55.9,53.1,90,29.98,10.0,NW,8.1,-,N/A,,Clear,310,2013-04-06 09:53:00
6:53 AM,55.9,53.1,90,30.00,10.0,NW,8.1,-,N/A,,Partly Cloudy,310,2013-04-06 10:53:00
7:53 AM,57.0,53.1,87,30.03,10.0,NW,9.2,-,N/A,,Partly Cloudy,310,2013-04-06 11:53:00
8:53 AM,63.0,55.9,78,30.04,10.0,NNW,9.2,-,N/A,,Clear,340,2013-04-06 12:53:00
9:53 AM,68.0,57.9,70,30.04,10.0,North,12.7,-,N/A,,Partly Cloudy,350,2013-04-06 13:53:00
10:53 AM,72.0,60.1,66,30.05,10.0,North,17.3,27.6,N/A,,Partly Cloudy,360,2013-04-06 14:53:00
11:53 AM,73.9,61.0,64,30.06,10.0,North,20.7,26.5,N/A,,Clear,10,2013-04-06 15:53:00
12:53 PM,75.9,62.1,62,30.07,10.0,NNE,17.3,24.2,N/A,,Clear,20,2013-04-06 16:53:00
1:53 PM,75.0,62.1,64,30.06,10.0,North,18.4,25.3,N/A,,Scattered Clouds,10,2013-04-06 17:53:00
2:53 PM,75.9,62.1,62,30.04,10.0,North,17.3,21.9,N/A,,Clear,10,2013-04-06 18:53:00
3:53 PM,78.1,57.0,48,30.06,10.0,NE,13.8,19.6,N/A,,Unknown,40,2013-04-06 19:53:00
4:53 PM,75.9,55.9,50,30.06,10.0,NE,11.5,-,N/A,,Clear,40,2013-04-06 20:53:00
5:53 PM,75.0,57.9,55,30.06,10.0,NE,12.7,-,N/A,,Clear,40,2013-04-06 21:53:00
6:53 PM,73.0,59.0,61,30.08,10.0,NE,8.1,-,N/A,,Unknown,40,2013-04-06 22:53:00
7:53 PM,70.0,60.1,71,30.08,10.0,NE,5.8,-,N/A,,Clear,40,2013-04-06 23:53:00
8:53 PM,66.9,60.1,79,30.10,10.0,NE,4.6,-,N/A,,Scattered Clouds,50,2013-04-07 00:53:00
9:53 PM,70.0,61.0,73,30.11,10.0,East,9.2,-,N/A,,Overcast,80,2013-04-07 01:53:00
10:53 PM,70.0,61.0,73,30.11,10.0,ENE,10.4,-,N/A,,Overcast,60,2013-04-07 02:53:00
11:53 PM,70.0,60.1,71,30.12,10.0,ENE,10.4,-,N/A,,Partly Cloudy,70,2013-04-07 03:53:00